Weather History for Fremont, MI

Change the Weather History Date:

Wednesday, May 15, 2013

  Actual Average (KMKG) Record (KMKG)
Temperature  
Mean Temperature 62 °F 57 °F  
Max Temperature 74 °F 67 °F 88 °F (1998)
Min Temperature 51 °F 47 °F 31 °F (1920)
Degree Days  
Heating Degree Days 2 9  
Month to date heating degree days 165  
Since 1 July heating degree days 6383  
Cooling Degree Days 0 1  
Month to date cooling degree days 7  
Year to date cooling degree days 11  
Growing Degree Days 12 (Base 50)    
Moisture  
Dew Point 45 °F    
Average Humidity 51    
Maximum Humidity 83    
Minimum Humidity 27    
Precipitation  
Precipitation 0.00 in 0.11 in 0.95 in (1982)
Month to date precipitation 1.55  
Year to date precipitation 10.57  
Snow  
Snow 0.00 in 0.00 in 0.00 in ()
Month to date snowfall 0.0  
Since 1 July snowfall 93.7  
Snow Depth -    
Sea Level Pressure  
Sea Level Pressure 29.71 in    
Wind  
Wind Speed 8 mph (West)    
Max Wind Speed 21 mph    
Max Gust Speed 26 mph    
Visibility 10 miles    
Events      
T = Trace of Precipitation, MM = Missing Value Source: NWS Daily Summary

Daily Weather History Graph

Daily Weather History Graph

Search for Another Location

Airport:

Trip Planner

Search our weather history database for the weather conditions in past years. The results will help you decide how hot, cold, wet, or windy it might be!

Date:

Astronomy

May. 15, 2013 Rise Set
Actual Time 6:19 AM EDT 9:02 PM EDT
Civil Twilight 5:46 AM EDT 9:35 PM EDT
Nautical Twilight 5:04 AM EDT 10:16 PM EDT
Astronomical Twilight 4:17 AM EDT 11:04 PM EDT
Moon 10:55 AM EDT (5/15) 12:46 AM EDT (5/15)
Length of Visible Light 15h 48m
Length of Day
14h 42m
Waxing Crescent, 26% of the Moon is Illuminated
May 15
Waxing Crescent
May 18
First Quarter
May 25
Full
May 31
Last Quarter
Jun 8
New

Hourly Weather History & Observations

Time (EDT) Temp. Dew Point Humidity Pressure Visibility Wind Dir Wind Speed Gust Speed Precip Events Conditions
12:15 AM 61.9 °F 50.0 °F 65% 29.62 in 10.0 mi East 4.6 mph - N/A   Mostly Cloudy
12:35 AM 61.7 °F 50.4 °F 66% 29.62 in 10.0 mi East 4.6 mph - N/A   Overcast
12:55 AM 61.2 °F 50.2 °F 67% 29.60 in 10.0 mi East 8.1 mph - N/A   Scattered Clouds
1:14 AM 61.2 °F 50.2 °F 67% 29.58 in 10.0 mi East 9.2 mph - N/A   Clear
1:35 AM 62.1 °F 50.0 °F 65% 29.57 in 10.0 mi ESE 5.8 mph - N/A   Clear
1:55 AM 61.5 °F 50.0 °F 66% 29.57 in 10.0 mi East 6.9 mph - N/A   Clear
2:15 AM 60.6 °F 50.0 °F 68% 29.57 in 10.0 mi Calm Calm - N/A   Clear
2:34 AM 60.3 °F 50.0 °F 69% 29.55 in 10.0 mi ESE 4.6 mph - N/A   Clear
2:55 AM 62.2 °F 50.2 °F 65% 29.54 in 10.0 mi SSE 6.9 mph - N/A   Clear
3:15 AM 61.3 °F 50.9 °F 69% 29.54 in 10.0 mi SSE 4.6 mph - N/A   Clear
3:34 AM 60.3 °F 51.1 °F 72% 29.54 in 10.0 mi SSW 5.8 mph - N/A   Clear
3:55 AM 64.0 °F 51.8 °F 64% 29.54 in 10.0 mi SSW 10.4 mph - N/A   Clear
4:15 AM 63.5 °F 51.8 °F 66% 29.54 in 10.0 mi SSW 8.1 mph - N/A   Clear
4:35 AM 63.1 °F 51.8 °F 66% 29.55 in 10.0 mi SW 6.9 mph - N/A   Clear
4:55 AM 64.4 °F 52.2 °F 64% 29.56 in 10.0 mi WSW 12.7 mph - N/A   Clear
5:15 AM 63.3 °F 51.3 °F 65% 29.56 in 10.0 mi WSW 10.4 mph - N/A   Clear
5:34 AM 62.2 °F 50.0 °F 64% 29.57 in 10.0 mi WSW 11.5 mph - N/A   Clear
5:55 AM 59.9 °F 49.5 °F 68% 29.58 in 10.0 mi West 6.9 mph - N/A   Clear
6:15 AM 59.5 °F 47.7 °F 65% 29.59 in 10.0 mi WNW 8.1 mph - N/A   Clear
6:35 AM 62.6 °F 45.0 °F 52% 29.60 in 10.0 mi WNW 15.0 mph 19.6 mph N/A   Clear
6:55 AM 62.1 °F 44.8 °F 53% 29.62 in 10.0 mi WNW 12.7 mph 18.4 mph N/A   Clear
7:15 AM 61.9 °F 44.8 °F 53% 29.62 in 10.0 mi WNW 13.8 mph - N/A   Clear
7:34 AM 61.9 °F 44.8 °F 53% 29.64 in 10.0 mi WNW 13.8 mph 18.4 mph N/A   Clear
7:55 AM 62.1 °F 45.0 °F 53% 29.65 in 10.0 mi WNW 15.0 mph 20.7 mph N/A   Clear
8:15 AM 63.1 °F 45.1 °F 52% 29.66 in 10.0 mi NW 13.8 mph 21.9 mph N/A   Clear
8:35 AM 64.0 °F 45.0 °F 50% 29.67 in 10.0 mi WNW 17.3 mph 23.0 mph N/A   Clear
9:15 AM 64.8 °F 45.5 °F 50% 29.70 in 10.0 mi WNW 12.7 mph 23.0 mph N/A   Clear
9:35 AM 66.4 °F 46.2 °F 48% 29.71 in 10.0 mi WNW 12.7 mph 19.6 mph N/A   Clear
9:54 AM 67.3 °F 45.9 °F 46% 29.72 in 10.0 mi WNW 20.7 mph 26.5 mph N/A   Clear
10:15 AM 67.6 °F 46.4 °F 46% 29.73 in 10.0 mi WNW 12.7 mph 25.3 mph N/A   Clear
10:35 AM 68.5 °F 46.9 °F 46% 29.74 in 10.0 mi WNW 15.0 mph 21.9 mph N/A   Clear
10:55 AM 69.1 °F 47.5 °F 46% 29.75 in 10.0 mi WNW 13.8 mph - N/A   Clear
11:15 AM 69.1 °F 46.4 °F 44% 29.76 in 10.0 mi WNW 20.7 mph - N/A   Clear
11:34 AM 69.6 °F 47.3 °F 45% 29.78 in 10.0 mi WNW 18.4 mph 25.3 mph N/A   Clear
11:55 AM 68.9 °F 46.0 °F 44% 29.79 in 10.0 mi WNW 19.6 mph 26.5 mph N/A   Clear
12:14 PM 69.6 °F 46.2 °F 43% 29.79 in 10.0 mi WNW 15.0 mph 23.0 mph N/A   Clear
12:35 PM 70.0 °F 45.0 °F 41% 29.80 in 10.0 mi West 13.8 mph 23.0 mph N/A   Clear
12:55 PM 70.2 °F 45.7 °F 41% 29.79 in 10.0 mi West 15.0 mph - N/A   Clear
1:14 PM 70.9 °F 45.7 °F 40% 29.79 in 10.0 mi NW 16.1 mph 20.7 mph N/A   Clear
1:35 PM 71.6 °F 43.3 °F 36% 29.78 in 10.0 mi NW 9.2 mph 17.3 mph N/A   Clear
1:55 PM 71.4 °F 43.5 °F 37% 29.80 in 10.0 mi NNW 10.4 mph 17.3 mph N/A   Clear
2:14 PM 72.1 °F 44.4 °F 37% 29.80 in 10.0 mi NW 6.9 mph - N/A   Clear
2:35 PM 73.0 °F 41.7 °F 32% 29.79 in 10.0 mi NNW 11.5 mph 17.3 mph N/A   Clear
2:55 PM 72.9 °F 41.7 °F 33% 29.78 in 10.0 mi NW 10.4 mph - N/A   Clear
3:15 PM 73.8 °F 40.5 °F 30% 29.79 in 10.0 mi NW 9.2 mph 17.3 mph N/A   Clear
3:35 PM 73.6 °F 39.9 °F 30% 29.79 in 10.0 mi NNW 5.8 mph 20.7 mph N/A   Clear
3:54 PM 74.3 °F 39.6 °F 29% 29.80 in 10.0 mi West 15.0 mph 23.0 mph N/A   Clear
4:15 PM 72.7 °F 39.7 °F 30% 29.80 in 10.0 mi West 11.5 mph - N/A   Clear
4:35 PM 72.7 °F 37.2 °F 27% 29.79 in 10.0 mi West 11.5 mph 16.1 mph N/A   Clear
4:55 PM 73.4 °F 37.4 °F 27% 29.80 in 10.0 mi WNW 9.2 mph - N/A   Clear
5:15 PM 73.6 °F 37.6 °F 27% 29.79 in 10.0 mi WNW 10.4 mph - N/A   Clear
5:34 PM 72.5 °F 38.1 °F 29% 29.80 in 10.0 mi WNW 11.5 mph 17.3 mph N/A   Clear
5:55 PM 70.7 °F 40.8 °F 34% 29.79 in 10.0 mi West 10.4 mph - N/A   Clear
6:15 PM 69.4 °F 41.2 °F 36% 29.79 in 10.0 mi WNW 8.1 mph - N/A   Clear
6:34 PM 69.3 °F 41.5 °F 37% 29.81 in 10.0 mi West 8.1 mph - N/A   Clear
6:55 PM 69.1 °F 43.3 °F 39% 29.81 in 10.0 mi WSW 6.9 mph - N/A   Scattered Clouds
7:15 PM 69.4 °F 42.3 °F 37% 29.80 in 10.0 mi West 4.6 mph - N/A   Mostly Cloudy
7:34 PM 68.5 °F 42.1 °F 38% 29.78 in 10.0 mi NNW 3.5 mph - N/A   Mostly Cloudy
7:55 PM 68.5 °F 42.8 °F 39% 29.79 in 10.0 mi Calm Calm - N/A   Scattered Clouds
8:15 PM 68.4 °F 43.0 °F 40% 29.79 in 10.0 mi SW 3.5 mph - N/A   Mostly Cloudy
8:35 PM 67.1 °F 42.4 °F 41% 29.80 in 10.0 mi SW 3.5 mph - N/A   Mostly Cloudy
8:55 PM 65.3 °F 43.7 °F 46% 29.80 in 10.0 mi SW 3.5 mph - N/A   Clear
9:14 PM 62.2 °F 45.9 °F 55% 29.80 in 10.0 mi SW 3.5 mph - N/A   Clear
9:35 PM 60.4 °F 45.1 °F 57% 29.81 in 10.0 mi Calm Calm - N/A   Clear
9:55 PM 60.8 °F 44.2 °F 54% 29.81 in 10.0 mi Calm Calm - N/A   Clear
10:15 PM 59.7 °F 43.5 °F 55% 29.82 in 10.0 mi Calm Calm - N/A   Clear
10:35 PM 54.7 °F 44.2 °F 68% 29.82 in 10.0 mi South 3.5 mph - N/A   Clear
10:54 PM 54.5 °F 44.8 °F 70% 29.82 in 10.0 mi Calm Calm - N/A   Clear
11:15 PM 51.8 °F 45.1 °F 78% 29.82 in 10.0 mi Calm Calm - N/A   Clear
11:35 PM 52.0 °F 46.0 °F 80% 29.82 in 10.0 mi Calm Calm - N/A   Clear
11:55 PM 52.0 °F 46.9 °F 83% 29.82 in 10.0 mi Calm Calm - N/A   Clear